Overview Statistics Trail Chart Weather Telemetry Raw packets
 

This is the latest recevied weather packets stored in our database for station/object PP5CI-13. If no packets are shown the sender has not sent any weather packets the latest 10 day(s).

<< 52 53 54 55 56 57 58 >>
Time Temp. Humidity Pressure Rain* Wind** Luminosity Snow
1787853031 22.78° C 88% 1012.2 hPa 0 mm - - -
1787852419 22.78° C 88% 1012.2 hPa 0 mm - - -
1787851825 22.78° C 87% 1013.2 hPa 0 mm - - -
1787851222 23.33° C 86% 1013.2 hPa 0 mm - - -
1787850619 23.89° C 83% 1013.2 hPa 0 mm - - -
1787850025 23.89° C 83% 1013.2 hPa 0 mm - - -
1787849431 23.89° C 84% 1013.2 hPa 0 mm - - -
1787848819 23.89° C 85% 1013.9 hPa 0 mm - - -
1787848225 23.33° C 87% 1014.2 hPa 0 mm - - -
1787847623 22.78° C 88% 1014.2 hPa 0 mm - - -
1787847019 23.33° C 86% 1014.2 hPa 0 mm - - -
1787846423 24.44° C 83% 1014.2 hPa 0 mm - - -
1787845831 23.89° C 84% 1014.2 hPa 0 mm - - -
1787845219 23.89° C 85% 1014.6 hPa 0 mm - - -
1787844625 23.33° C 87% 1015.2 hPa 0 mm - - -
1787844023 22.78° C 88% 1015.2 hPa 0 mm - - -
1787843423 - - - 0 mm - - -
1787842823 22.78° C 88% 1015.2 hPa 0 mm - - -
1787842239 22.78° C 88% 1015.2 hPa 0 mm - - -
1787841639 22.78° C 89% 1015.2 hPa 0 mm - - -
1787841025 22.22° C 90% 1016.2 hPa 0 mm - - -
1787840423 22.22° C 91% 1016.2 hPa 0 mm - - -
1787839819 21.67° C 92% 1016.2 hPa 0 mm - - -
1787839226 21.67° C 92% 1016.2 hPa 0 mm - - -
1787838631 21.11° C 93% 1016.2 hPa 0 mm - - -

* Rain latest hour (hover to see other rain measurements)
** Current wind speed in m/s (hover to see current wind gust speed)